Location: Franzen
(48.6167°N, 15.3833°E)
Time: 01:09:58
(UTC+00:00)

ISS - Pass Details

Date: 27 June 2021
Orbit: 419 x 421 km, 51.6° (Epoch: 02 August)

Event Time Altitude Azimuth Distance (km) Brightness Sun altitude
Exits shadow 02:15:27 - 187° (S) 2,058 -0.7 -6.1°
Reaches altitude 10° 02:17:32 10° 164° (SSE) 1,495 -1.2 -5.8°
Maximum altitude 02:19:09 13° 135° (SE) 1,328 -1.2 -5.6°
Drops below altitude 10° 02:20:46 10° 106° (ESE) 1,500 -0.5 -5.4°
Sets 02:23:44 0° 78° (ENE) 2,368 1.2 -5.1°
